Kankakee, IL

1:47 AM CST on December 16, 2017 (GMT -0600)
Greater Kankakee

Weather History for KIKK - February, 2013

Change the Weather History Date:

Tuesday, February 12, 2013

  Actual Average Record
Temperature  
Mean Temperature 26 °F -  
Max Temperature 31 °F 33 °F 56 °F (1977)
Min Temperature 22 °F 14 °F -11 °F (2014)
Degree Days  
Heating Degree Days 38    
Moisture  
Dew Point 23 °F    
Average Humidity 81    
Maximum Humidity 99    
Minimum Humidity 73    
Precipitation  
Precipitation 0.00 in - - ()
Sea Level Pressure  
Sea Level Pressure 30.05 in    
Wind  
Wind Speed 11 mph (West)    
Max Wind Speed 20 mph    
Max Gust Speed 28 mph    
Visibility 9 miles    
Events Thunderstorm    
Averages and records for this station are not official NWS values.
T = Trace of Precipitation, MM = Missing Value Source: NWS Daily Summary

Daily Weather History Graph

Daily Weather History Graph

Search for Another Location

Airport or City:

Trip Planner

Search our weather history database for the weather conditions in past years. The results will help you decide how hot, cold, wet, or windy it might be!

Date:

Astronomy

Feb. 12, 2013 Rise Set
Actual Time 6:49 AM CST 5:22 PM CST
Civil Twilight 6:21 AM CST 5:50 PM CST
Nautical Twilight 5:48 AM CST 6:23 PM CST
Astronomical Twilight 5:16 AM CST 6:55 PM CST
Moon 7:44 AM CST (2/12) 8:25 PM CST (2/12)
Length of Visible Light 11h 29m
Length of Day
10h 33m
Waxing Crescent, 7% of the Moon is Illuminated
Feb 12
Waxing Crescent
Feb 17
First Quarter
Feb 25
Full
Mar 4
Last Quarter
Mar 11
New

Hourly Weather History & Observations

Time (CST) Temp. Windchill Dew Point Humidity Pressure Visibility Wind Dir Wind Speed Gust Speed Precip Events Conditions
12:15 AM 30.0 °F 18.3 °F 22.5 °F 73% 30.08 in 10.0 mi West 17.3 mph 23.0 mph N/A   Overcast
12:35 AM 29.8 °F 18.0 °F 22.5 °F 74% 30.07 in 10.0 mi West 17.3 mph 21.9 mph N/A   Overcast
12:55 AM 29.8 °F 18.0 °F 23.0 °F 76% 30.07 in 10.0 mi West 17.3 mph 21.9 mph N/A   Overcast
1:15 AM 29.8 °F 17.3 °F 22.8 °F 75% 30.07 in 10.0 mi West 19.6 mph 25.3 mph N/A   Overcast
1:35 AM 29.3 °F 17.7 °F 21.6 °F 73% 30.07 in 10.0 mi WNW 16.1 mph 27.6 mph N/A   Overcast
1:55 AM 29.7 °F 19.1 °F 22.5 °F 75% 30.09 in 10.0 mi West 13.8 mph - N/A   Overcast
2:15 AM 29.7 °F 20.1 °F 23.0 °F 76% 30.09 in 10.0 mi West 11.5 mph 17.3 mph N/A   Overcast
2:35 AM 29.5 °F 18.0 °F 22.3 °F 75% 30.09 in 10.0 mi West 16.1 mph 25.3 mph N/A   Overcast
2:55 AM 29.3 °F 19.6 °F 22.6 °F 76% 30.09 in 10.0 mi West 11.5 mph - N/A   Overcast
3:15 AM 29.1 °F 17.5 °F 22.1 °F 75% 30.09 in 10.0 mi West 16.1 mph 24.2 mph N/A   Overcast
3:35 AM 28.4 °F 18.5 °F 21.9 °F 77% 30.09 in 10.0 mi WNW 11.5 mph 16.1 mph N/A   Overcast
3:55 AM 28.0 °F 19.3 °F 21.9 °F 78% 30.09 in 10.0 mi WNW 9.2 mph - N/A   Overcast
4:15 AM 28.0 °F 19.3 °F 22.1 °F 78% 30.09 in 10.0 mi West 9.2 mph - N/A   Overcast
4:35 AM 28.0 °F 17.0 °F 22.1 °F 78% 30.10 in 10.0 mi WNW 13.8 mph - N/A   Overcast
4:55 AM 27.5 °F 18.0 °F 21.7 °F 79% 30.10 in 10.0 mi West 10.4 mph - N/A   Overcast
5:15 AM 27.5 °F 18.0 °F 21.9 °F 80% 30.10 in 10.0 mi West 10.4 mph - N/A   Overcast
5:35 AM 27.5 °F 18.0 °F 22.1 °F 80% 30.10 in 10.0 mi West 10.4 mph - N/A   Overcast
5:55 AM 27.5 °F 18.6 °F 21.9 °F 80% 30.10 in 10.0 mi West 9.2 mph - N/A   Overcast
6:15 AM 27.5 °F 20.2 °F 22.3 °F 81% 30.10 in 10.0 mi West 6.9 mph - N/A   Overcast
6:35 AM 27.3 °F 19.1 °F 21.9 °F 80% 30.10 in 10.0 mi West 8.1 mph - N/A   Overcast
6:55 AM 27.1 °F 19.7 °F 22.1 °F 81% 30.10 in 10.0 mi West 6.9 mph - N/A   Overcast
7:15 AM 27.3 °F 17.7 °F 22.1 °F 81% 30.12 in 10.0 mi West 10.4 mph - N/A   Overcast
7:35 AM 27.1 °F 18.9 °F 22.1 °F 81% 30.11 in 10.0 mi West 8.1 mph - N/A   Overcast
7:55 AM 27.1 °F 17.5 °F 21.9 °F 81% 30.12 in 10.0 mi West 10.4 mph - N/A   Overcast
8:15 AM 26.8 °F 17.7 °F 21.4 °F 80% 30.11 in 10.0 mi West 9.2 mph - N/A   Overcast
8:35 AM 27.3 °F 18.4 °F 21.9 °F 80% 30.12 in 10.0 mi West 9.2 mph - N/A   Overcast
8:55 AM 27.5 °F 18.6 °F 22.1 °F 80% 30.12 in 10.0 mi West 9.2 mph - N/A   Overcast
9:15 AM 27.9 °F 19.1 °F 22.3 °F 80% 30.12 in 10.0 mi West 9.2 mph - N/A   Overcast
9:35 AM 28.4 °F 19.7 °F 22.5 °F 78% 30.13 in 10.0 mi West 9.2 mph - N/A   Overcast
9:55 AM 28.4 °F 18.5 °F 22.5 °F 78% 30.13 in 10.0 mi WSW 11.5 mph - N/A   Overcast
10:15 AM 28.8 °F 19.0 °F 22.5 °F 77% 30.12 in 10.0 mi West 11.5 mph - N/A   Overcast
10:35 AM 28.8 °F 19.5 °F 22.6 °F 78% 30.12 in 10.0 mi West 10.4 mph 16.1 mph N/A   Overcast
10:55 AM 28.9 °F 19.8 °F 22.5 °F 77% 30.10 in 10.0 mi West 10.4 mph - N/A   Overcast
11:15 AM 28.6 °F 20.7 °F 22.6 °F 78% 30.08 in 10.0 mi West 8.1 mph - N/A   Overcast
11:35 AM 28.4 °F 19.7 °F 22.6 °F 79% 30.07 in 10.0 mi West 9.2 mph - N/A   Overcast
11:55 AM 28.9 °F 19.8 °F 23.0 °F 78% 30.06 in 10.0 mi West 10.4 mph - N/A   Overcast
12:15 PM 29.3 °F 20.8 °F 22.6 °F 76% 30.07 in 10.0 mi WSW 9.2 mph - N/A   Overcast
12:35 PM 29.3 °F 20.2 °F 22.6 °F 76% 30.06 in 10.0 mi West 10.4 mph - N/A   Overcast
12:55 PM 29.5 °F 19.3 °F 23.2 °F 77% 30.05 in 10.0 mi West 12.7 mph - N/A   Overcast
1:15 PM 29.8 °F 21.5 °F 23.0 °F 76% 30.05 in 10.0 mi West 9.2 mph - N/A   Overcast
1:35 PM 30.2 °F 20.8 °F 23.7 °F 77% 30.06 in 10.0 mi West 11.5 mph - N/A   Overcast
1:55 PM 30.4 °F 21.5 °F 23.7 °F 76% 30.06 in 10.0 mi West 10.4 mph - N/A   Overcast
2:15 PM 30.9 °F 22.2 °F 23.7 °F 75% 30.06 in 10.0 mi West 10.4 mph - N/A   Overcast
2:35 PM 30.9 °F 22.8 °F 23.9 °F 75% 30.05 in 10.0 mi West 9.2 mph - N/A   Overcast
2:55 PM - - - N/A% 30.04 in 10.0 mi West 10.4 mph - N/A   Overcast
3:15 PM 31.1 °F 23.1 °F 23.7 °F 74% 30.04 in 10.0 mi WSW 9.2 mph - N/A Thunderstorm Thunderstorm
3:35 PM 30.6 °F 23.8 °F 23.7 °F 76% 30.05 in 10.0 mi West 6.9 mph - N/A   Overcast
3:55 PM 30.9 °F 22.2 °F 23.7 °F 75% 30.04 in 10.0 mi WSW 10.4 mph - N/A   Overcast
4:15 PM 31.1 °F 23.7 °F 23.9 °F 75% 30.03 in 10.0 mi West 8.1 mph - N/A   Overcast
4:35 PM 30.7 °F 22.6 °F 24.3 °F 77% 30.02 in 10.0 mi West 9.2 mph - N/A   Overcast
4:55 PM 30.2 °F 23.4 °F 23.4 °F 76% 30.02 in 10.0 mi West 6.9 mph 16.1 mph N/A   Mostly Cloudy
5:15 PM 29.7 °F 24.7 °F 23.9 °F 79% 30.01 in 10.0 mi West 4.6 mph - N/A   Mostly Cloudy
5:35 PM 29.1 °F 25.4 °F 23.9 °F 81% 30.01 in 10.0 mi West 3.5 mph - N/A   Scattered Clouds
5:55 PM 28.9 °F 25.2 °F 23.9 °F 81% 30.01 in 10.0 mi West 3.5 mph - N/A   Clear
6:15 PM 28.9 °F - 23.7 °F 81% 30.00 in 10.0 mi Calm Calm - N/A   Clear
6:35 PM 28.4 °F - 23.7 °F 83% 30.00 in 10.0 mi Calm Calm - N/A   Clear
6:55 PM 27.3 °F - 23.5 °F 86% 29.99 in 10.0 mi Calm Calm - N/A   Clear
7:15 PM 27.5 °F - 23.9 °F 86% 29.99 in 10.0 mi Calm Calm - N/A   Clear
7:35 PM 26.6 °F - 23.4 °F 88% 29.98 in 10.0 mi Calm Calm - N/A   Clear
7:55 PM 23.4 °F - 22.3 °F 96% 29.98 in 7.0 mi Calm Calm - N/A   Clear
8:15 PM 25.2 °F - 24.1 °F 96% 29.97 in 7.0 mi Calm Calm - N/A   Clear
8:35 PM 24.1 °F - 22.6 °F 94% 29.96 in 7.0 mi Calm Calm - N/A   Clear
8:55 PM 24.3 °F - 22.3 °F 92% 29.96 in 7.0 mi Calm Calm - N/A   Clear
9:15 PM 23.7 °F - 22.3 °F 94% 29.95 in 7.0 mi Calm Calm - N/A   Clear
9:35 PM 23.0 °F 18.4 °F 21.7 °F 95% 29.96 in 5.0 mi SSE 3.5 mph - N/A   Clear
9:55 PM 23.0 °F - 21.6 °F 94% 29.96 in 7.0 mi Calm Calm - N/A   Clear
10:15 PM 24.4 °F 18.6 °F 23.0 °F 94% 29.96 in 7.0 mi South 4.6 mph - N/A   Clear
10:35 PM 23.2 °F - 22.1 °F 96% 29.96 in 7.0 mi Calm Calm - N/A   Clear
10:55 PM 23.0 °F - 22.1 °F 96% 29.95 in 5.0 mi Calm Calm - N/A   Clear
11:15 PM 22.8 °F - 22.5 °F 99% 29.95 in 4.0 mi Calm Calm - N/A   Clear
11:35 PM 23.5 °F - 22.3 °F 95% 29.95 in 5.0 mi Calm Calm - N/A   Clear
11:55 PM 23.0 °F - 22.5 °F 98% 29.94 in 4.0 mi Calm Calm - N/A   Clear